Weather History for Lakeland Region, FL

Change the Weather History Date:

Thursday, July 25, 2013

  Actual Average Record
Temperature  
Mean Temperature 78 °F -  
Max Temperature 86 °F 89 °F 96 °F (1996)
Min Temperature 71 °F 71 °F 71 °F (2000)
Cooling Degree Days 14    
Growing Degree Days 28 (Base 50)    
Moisture  
Dew Point 73 °F    
Average Humidity 88    
Maximum Humidity 100    
Minimum Humidity 58    
Precipitation  
Precipitation 0.00 in - - ()
Sea Level Pressure  
Sea Level Pressure 29.95 in    
Wind  
Wind Speed 5 mph (SW)    
Max Wind Speed 16 mph    
Max Gust Speed 18 mph    
Visibility 8 miles    
Events Rain , Thunderstorm    
Averages and records for this station are not official NWS values.
T = Trace of Precipitation, MM = Missing Value Source: NWS Daily Summary

Daily Weather History Graph

Daily Weather History Graph

Search for Another Location

Airport:

Trip Planner

Search our weather history database for the weather conditions in past years. The results will help you decide how hot, cold, wet, or windy it might be!

Date:

Astronomy

Jul. 25, 2013 Rise Set
Actual Time 6:46 AM EDT 8:21 PM EDT
Civil Twilight 6:21 AM EDT 8:47 PM EDT
Nautical Twilight 5:50 AM EDT 9:18 PM EDT
Astronomical Twilight 5:18 AM EDT 9:50 PM EDT
Moon 10:27 PM EDT (7/25) 9:52 AM EDT (7/25)
Length of Visible Light 14h 26m
Length of Day
13h 34m
Waning Gibbous, 88% of the Moon is Illuminated
Jul 25
Waning Gibbous
Jul 29
Last Quarter
Aug 6
New
Aug 14
First Quarter
Aug 20
Full

Hourly Weather History & Observations

Time (EDT) Temp. Heat Index Dew Point Humidity Pressure Visibility Wind Dir Wind Speed Gust Speed Precip Events Conditions
12:15 AM 77.0 °F - 73.4 °F 89% 29.95 in 7.0 mi SSW 4.6 mph - N/A   Clear
12:35 AM 77.0 °F - 73.4 °F 89% 29.94 in 7.0 mi South 3.5 mph - N/A   Scattered Clouds
12:55 AM 77.0 °F - 73.4 °F 89% 29.94 in - SSW 4.6 mph - N/A   Unknown
1:15 AM 75.2 °F - 73.4 °F 94% 29.93 in - South 3.5 mph - N/A   Unknown
1:35 AM 75.2 °F - 73.4 °F 94% 29.93 in - South 5.8 mph - N/A   Unknown
1:55 AM 77.0 °F - 73.4 °F 89% 29.93 in - SSW 3.5 mph - N/A   Unknown
2:15 AM 75.2 °F - 73.4 °F 94% 29.92 in - SSW 4.6 mph - N/A   Unknown
2:35 AM 75.2 °F - 73.4 °F 94% 29.92 in 7.0 mi SSW 4.6 mph - N/A   Clear
2:55 AM 75.2 °F - 73.4 °F 94% 29.91 in - SSW 4.6 mph - N/A   Unknown
3:15 AM 75.2 °F - 73.4 °F 94% 29.91 in - SSW 3.5 mph - N/A   Unknown
3:35 AM 75.2 °F - 73.4 °F 94% 29.91 in - SSW 4.6 mph - N/A   Unknown
3:55 AM 75.2 °F - 73.4 °F 94% 29.91 in - SW 5.8 mph - N/A   Unknown
4:15 AM 75.2 °F - 73.4 °F 94% 29.91 in - SSW 5.8 mph - N/A   Unknown
4:35 AM 75.2 °F - 73.4 °F 94% 29.90 in - SW 3.5 mph - N/A   Unknown
4:55 AM 73.4 °F - 73.4 °F 100% 29.90 in - SSW 3.5 mph - N/A Thunderstorm Thunderstorm
5:15 AM 73.4 °F - 73.4 °F 100% 29.90 in - SSW 4.6 mph - N/A   Unknown
5:35 AM 75.2 °F - 73.4 °F 94% 29.91 in - SSW 3.5 mph - N/A   Unknown
5:50 AM 75.2 °F - 73.4 °F 94% 29.91 in 10.0 mi SSW 3.5 mph - N/A Thunderstorm Thunderstorm
5:55 AM 75.2 °F - 73.4 °F 94% 29.91 in - SSW 3.5 mph - N/A Thunderstorm Thunderstorm
6:15 AM 75.2 °F - 73.4 °F 94% 29.94 in - North 12.7 mph 16.1 mph N/A Thunderstorm Thunderstorm
6:33 AM 73.4 °F - 71.6 °F 94% 29.93 in 5.0 mi NNW 6.9 mph - N/A Rain , Thunderstorm Thunderstorms and Rain
6:35 AM 71.6 °F - 71.6 °F 100% 29.94 in - NNW 8.1 mph - N/A Thunderstorm Thunderstorm
6:50 AM 73.4 °F - 71.6 °F 94% 29.97 in 1.0 mi West 16.1 mph - N/A Rain , Thunderstorm Heavy Thunderstorms and Rain
7:11 AM 73.4 °F - 71.6 °F 94% 29.95 in 6.0 mi West 6.9 mph - N/A Rain , Thunderstorm Thunderstorms and Rain
7:50 AM 73.4 °F - 71.6 °F 94% 29.97 in 6.0 mi Variable 3.5 mph - N/A Rain Light Rain
8:50 AM 73.4 °F - 71.6 °F 94% 29.98 in 7.0 mi Variable 3.5 mph - N/A Rain Light Rain
9:50 AM 75.2 °F - 73.4 °F 94% 29.98 in 10.0 mi South 3.5 mph - N/A   Overcast
10:50 AM 78.8 °F - 73.4 °F 83% 30.01 in 10.0 mi Calm Calm - N/A   Overcast
11:50 AM 82.4 °F 89.5 °F 75.2 °F 79% 30.02 in 10.0 mi Calm Calm - N/A   Overcast
12:50 PM 84.2 °F 90.9 °F 73.4 °F 70% 30.00 in 10.0 mi WSW 6.9 mph - N/A   Mostly Cloudy
1:50 PM 86.0 °F 90.4 °F 69.8 °F 58% 30.00 in 10.0 mi West 11.5 mph - N/A   Overcast
2:50 PM 86.0 °F 90.4 °F 69.8 °F 58% 30.00 in 10.0 mi West 12.7 mph 18.4 mph N/A   Overcast
3:50 PM 86.0 °F 90.4 °F 69.8 °F 58% 29.99 in 10.0 mi WSW 10.4 mph 18.4 mph N/A   Overcast
4:50 PM 84.2 °F 88.4 °F 69.8 °F 62% 29.98 in 10.0 mi West 11.5 mph - N/A   Overcast
5:50 PM 84.2 °F 89.6 °F 71.6 °F 66% 29.97 in 10.0 mi WSW 6.9 mph - N/A   Overcast
6:50 PM 82.4 °F 87.2 °F 71.6 °F 70% 29.97 in 10.0 mi SW 9.2 mph - N/A   Overcast
7:50 PM 78.8 °F - 75.2 °F 89% 29.98 in 10.0 mi West 4.6 mph - N/A   Mostly Cloudy
8:55 PM 78.8 °F - 75.2 °F 89% 29.98 in 10.0 mi Calm Calm - N/A   Overcast
9:50 PM 78.8 °F - 75.2 °F 89% 29.99 in 7.0 mi Calm Calm - N/A   Mostly Cloudy
10:55 PM 77.0 °F - 75.2 °F 94% 29.99 in 5.0 mi North 6.9 mph - N/A Thunderstorm Mostly Cloudy
11:15 PM 77.0 °F - 73.4 °F 89% 30.00 in 7.0 mi WNW 6.9 mph - N/A Rain , Thunderstorm Light Thunderstorms and Rain
11:35 PM 75.2 °F - 71.6 °F 89% 30.01 in 10.0 mi WSW 6.9 mph - N/A Thunderstorm Thunderstorm
11:55 PM 75.2 °F - 71.6 °F 89% 30.01 in 10.0 mi West 9.2 mph - N/A Thunderstorm Overcast